Time,TemperatureF,DewpointF,PressureIn,WindDirection,WindDirectionDegrees,WindSpeedMPH,WindSpeedGustMPH,Humidity,HourlyPrecipIn,Conditions,Clouds,dailyrainin,SoftwareType,DateUTC
2013-01-04 00:08:00,28.8,27.0,30.24,West,269,1.0,4.0,94,0.00,,,0.00,weatherlink.com 1.10,2013-01-04 05:08:00,
2013-01-04 00:23:00,28.7,27.0,30.23,West,269,0.0,3.0,94,0.00,,,0.00,weatherlink.com 1.10,2013-01-04 05:23:00,
2013-01-04 00:38:00,28.5,27.0,30.24,West,266,0.0,4.0,94,0.00,,,0.00,weatherlink.com 1.10,2013-01-04 05:38:00,
2013-01-04 00:53:00,28.3,27.0,30.23,West,270,1.0,3.0,94,0.00,,,0.00,weatherlink.com 1.10,2013-01-04 05:53:00,
2013-01-04 01:08:00,28.1,27.0,30.23,West,270,2.0,2.0,94,0.00,,,0.00,weatherlink.com 1.10,2013-01-04 06:08:00,
2013-01-04 01:23:00,28.0,27.0,30.23,WNW,284,1.0,5.0,94,0.00,,,0.00,weatherlink.com 1.10,2013-01-04 06:23:00,
2013-01-04 01:38:00,27.8,26.0,30.24,WNW,283,2.0,4.0,94,0.00,,,0.00,weatherlink.com 1.10,2013-01-04 06:38:00,
2013-01-04 01:53:00,27.6,26.0,30.24,WNW,283,1.0,4.0,94,0.00,,,0.00,weatherlink.com 1.10,2013-01-04 06:53:00,
2013-01-04 02:08:00,27.5,26.0,30.25,WSW,258,2.0,6.0,95,0.00,,,0.00,weatherlink.com 1.10,2013-01-04 07:08:00,
2013-01-04 02:23:00,27.6,26.0,30.25,NW,304,2.0,5.0,95,0.00,,,0.00,weatherlink.com 1.10,2013-01-04 07:23:00,
2013-01-04 02:38:00,27.7,27.0,30.26,West,275,2.0,4.0,95,0.00,,,0.00,weatherlink.com 1.10,2013-01-04 07:38:00,
2013-01-04 02:53:00,27.7,27.0,30.27,West,276,3.0,4.0,95,0.00,,,0.00,weatherlink.com 1.10,2013-01-04 07:53:00,
2013-01-04 03:08:00,27.8,27.0,30.26,West,276,1.0,4.0,95,0.00,,,0.00,weatherlink.com 1.10,2013-01-04 08:08:00,
2013-01-04 03:23:00,27.7,27.0,30.26,West,276,1.0,4.0,95,0.00,,,0.00,weatherlink.com 1.10,2013-01-04 08:23:00,
2013-01-04 03:38:00,27.6,26.0,30.26,West,275,2.0,4.0,95,0.00,,,0.00,weatherlink.com 1.10,2013-01-04 08:38:00,
2013-01-04 03:53:00,27.5,26.0,30.25,West,273,1.0,4.0,95,0.00,,,0.00,weatherlink.com 1.10,2013-01-04 08:53:00,
2013-01-04 04:08:00,27.4,26.0,30.25,West,273,2.0,3.0,95,0.00,,,0.00,weatherlink.com 1.10,2013-01-04 09:08:00,
2013-01-04 04:25:00,27.0,26.0,30.25,West,273,2.0,2.0,95,0.00,,,0.00,weatherlink.com 1.10,2013-01-04 09:25:00,
2013-01-04 04:38:00,26.6,25.0,30.25,West,274,2.0,4.0,94,0.00,,,0.00,weatherlink.com 1.10,2013-01-04 09:38:00,
2013-01-04 04:53:00,26.5,25.0,30.25,WNW,284,2.0,6.0,94,0.00,,,0.00,weatherlink.com 1.10,2013-01-04 09:53:00,
2013-01-04 05:08:00,26.5,25.0,30.26,WSW,257,1.0,6.0,95,0.00,,,0.00,weatherlink.com 1.10,2013-01-04 10:08:00,
2013-01-04 05:23:00,26.7,25.0,30.26,WNW,284,4.0,5.0,94,0.00,,,0.00,weatherlink.com 1.10,2013-01-04 10:23:00,
2013-01-04 05:38:00,26.7,26.0,30.25,WNW,287,2.0,4.0,95,0.00,,,0.00,weatherlink.com 1.10,2013-01-04 10:38:00,
2013-01-04 05:53:00,26.7,25.0,30.26,WNW,303,1.0,4.0,94,0.00,,,0.00,weatherlink.com 1.10,2013-01-04 10:53:00,
2013-01-04 06:08:00,26.5,25.0,30.26,WNW,303,1.0,3.0,94,0.00,,,0.00,weatherlink.com 1.10,2013-01-04 11:08:00,
2013-01-04 06:23:00,26.3,25.0,30.26,WNW,291,1.0,3.0,93,0.00,,,0.00,weatherlink.com 1.10,2013-01-04 11:23:00,
2013-01-04 06:38:00,26.0,24.0,30.26,NW,310,3.0,6.0,93,0.00,,,0.00,weatherlink.com 1.10,2013-01-04 11:38:00,
2013-01-04 06:53:00,26.0,24.0,30.26,NW,304,3.0,7.0,93,0.00,,,0.00,weatherlink.com 1.10,2013-01-04 11:53:00,
2013-01-04 07:08:00,26.3,25.0,30.26,NW,311,2.0,7.0,94,0.00,,,0.00,weatherlink.com 1.10,2013-01-04 12:08:00,
2013-01-04 07:24:00,26.8,25.0,30.26,NW,304,4.0,6.0,93,0.00,,,0.00,weatherlink.com 1.10,2013-01-04 12:24:00,
2013-01-04 07:39:00,27.2,25.0,30.26,WNW,288,2.0,5.0,92,0.00,,,0.00,weatherlink.com 1.10,2013-01-04 12:39:00,
2013-01-04 07:54:00,27.4,25.0,30.27,NW,325,4.0,5.0,91,0.00,,,0.00,weatherlink.com 1.10,2013-01-04 12:54:00,
2013-01-04 08:09:00,27.7,25.0,30.27,WNW,283,3.0,6.0,90,0.00,,,0.00,weatherlink.com 1.10,2013-01-04 13:09:00,
2013-01-04 08:24:00,27.9,25.0,30.27,WNW,292,3.0,5.0,90,0.00,,,0.00,weatherlink.com 1.10,2013-01-04 13:24:00,
2013-01-04 08:39:00,28.1,26.0,30.28,WNW,294,4.0,7.0,90,0.00,,,0.00,weatherlink.com 1.10,2013-01-04 13:39:00,
2013-01-04 08:54:00,29.3,27.0,30.28,West,281,2.0,8.0,89,0.00,,,0.00,weatherlink.com 1.10,2013-01-04 13:54:00,
2013-01-04 09:09:00,30.5,27.0,30.28,WNW,284,3.0,8.0,86,0.00,,,0.00,weatherlink.com 1.10,2013-01-04 14:09:00,
2013-01-04 09:24:00,32.1,27.0,30.29,NW,309,2.0,9.0,81,0.00,,,0.00,weatherlink.com 1.10,2013-01-04 14:24:00,
2013-01-04 09:39:00,32.2,27.0,30.30,WNW,296,3.0,10.0,80,0.00,,,0.00,weatherlink.com 1.10,2013-01-04 14:39:00,
2013-01-04 09:54:00,33.4,27.0,30.29,WNW,297,2.0,8.0,78,0.00,,,0.00,weatherlink.com 1.10,2013-01-04 14:54:00,
2013-01-04 10:09:00,34.8,28.0,30.30,NNW,340,3.0,5.0,76,0.00,,,0.00,weatherlink.com 1.10,2013-01-04 15:09:00,
2013-01-04 10:24:00,35.6,28.0,30.31,WNW,286,3.0,14.0,74,0.00,,,0.00,weatherlink.com 1.10,2013-01-04 15:24:00,
2013-01-04 10:39:00,36.5,28.0,30.31,NNW,329,3.0,9.0,71,0.00,,,0.00,weatherlink.com 1.10,2013-01-04 15:39:00,
2013-01-04 10:54:00,37.6,27.0,30.30,NW,323,3.0,8.0,67,0.00,,,0.00,weatherlink.com 1.10,2013-01-04 15:54:00,
2013-01-04 11:09:00,38.4,27.0,30.30,WNW,296,3.0,9.0,65,0.00,,,0.00,weatherlink.com 1.10,2013-01-04 16:09:00,
2013-01-04 11:24:00,39.2,27.0,30.29,WNW,296,1.0,10.0,62,0.00,,,0.00,weatherlink.com 1.10,2013-01-04 16:24:00,
2013-01-04 11:39:00,39.8,27.0,30.28,WNW,284,3.0,16.0,60,0.00,,,0.00,weatherlink.com 1.10,2013-01-04 16:39:00,
2013-01-04 11:54:00,41.2,26.0,30.25,NNW,331,2.0,10.0,55,0.00,,,0.00,weatherlink.com 1.10,2013-01-04 16:54:00,
2013-01-04 12:09:00,41.3,25.0,30.25,NW,323,5.0,9.0,53,0.00,,,0.00,weatherlink.com 1.10,2013-01-04 17:09:00,
2013-01-04 12:24:00,42.3,27.0,30.24,NW,306,4.0,11.0,54,0.00,,,0.00,weatherlink.com 1.10,2013-01-04 17:24:00,
2013-01-04 12:39:00,42.7,27.0,30.23,WNW,294,3.0,8.0,55,0.00,,,0.00,weatherlink.com 1.10,2013-01-04 17:39:00,
2013-01-04 12:54:00,43.4,26.0,30.23,WSW,237,3.0,10.0,51,0.00,,,0.00,weatherlink.com 1.10,2013-01-04 17:54:00,
2013-01-04 13:09:00,43.7,25.0,30.22,WNW,288,5.0,13.0,49,0.00,,,0.00,weatherlink.com 1.10,2013-01-04 18:09:00,
2013-01-04 13:25:00,44.3,27.0,30.21,WNW,282,5.0,8.0,51,0.00,,,0.00,weatherlink.com 1.10,2013-01-04 18:25:00,
2013-01-04 13:40:00,44.5,26.0,30.21,WNW,287,4.0,13.0,48,0.00,,,0.00,weatherlink.com 1.10,2013-01-04 18:40:00,
2013-01-04 13:55:00,44.7,26.0,30.20,WNW,298,3.0,6.0,48,0.00,,,0.00,weatherlink.com 1.10,2013-01-04 18:55:00,
2013-01-04 14:10:00,45.3,26.0,30.20,WSW,255,4.0,11.0,47,0.00,,,0.00,weatherlink.com 1.10,2013-01-04 19:10:00,
2013-01-04 14:25:00,45.6,26.0,30.19,West,260,3.0,13.0,46,0.00,,,0.00,weatherlink.com 1.10,2013-01-04 19:25:00,
2013-01-04 14:40:00,46.3,25.0,30.19,NW,319,6.0,12.0,43,0.00,,,0.00,weatherlink.com 1.10,2013-01-04 19:40:00,
2013-01-04 14:55:00,46.3,25.0,30.18,NNW,327,1.0,8.0,44,0.00,,,0.00,weatherlink.com 1.10,2013-01-04 19:55:00,
2013-01-04 15:10:00,46.0,26.0,30.18,WNW,284,6.0,10.0,46,0.00,,,0.00,weatherlink.com 1.10,2013-01-04 20:10:00,
2013-01-04 15:25:00,46.4,25.0,30.18,WNW,285,6.0,9.0,43,0.00,,,0.00,weatherlink.com 1.10,2013-01-04 20:25:00,
2013-01-04 15:40:00,47.6,26.0,30.19,West,277,5.0,12.0,43,0.00,,,0.00,weatherlink.com 1.10,2013-01-04 20:40:00,
2013-01-04 15:55:00,47.3,24.0,30.19,West,268,1.0,13.0,40,0.00,,,0.00,weatherlink.com 1.10,2013-01-04 20:55:00,
2013-01-04 16:10:00,46.3,25.0,30.20,WNW,296,1.0,10.0,43,0.00,,,0.00,weatherlink.com 1.10,2013-01-04 21:10:00,
2013-01-04 16:25:00,46.1,25.0,30.20,NW,321,1.0,8.0,43,0.00,,,0.00,weatherlink.com 1.10,2013-01-04 21:25:00,
2013-01-04 16:40:00,46.0,26.0,30.19,West,274,1.0,8.0,45,0.00,,,0.00,weatherlink.com 1.10,2013-01-04 21:40:00,
2013-01-04 16:55:00,45.4,25.0,30.19,West,272,3.0,7.0,45,0.00,,,0.00,weatherlink.com 1.10,2013-01-04 21:55:00,
2013-01-04 17:10:00,44.8,26.0,30.19,WNW,286,2.0,6.0,48,0.00,,,0.00,weatherlink.com 1.10,2013-01-04 22:10:00,
2013-01-04 17:25:00,44.5,26.0,30.19,WNW,284,2.0,6.0,49,0.00,,,0.00,weatherlink.com 1.10,2013-01-04 22:25:00,
2013-01-04 17:40:00,44.6,26.0,30.20,WNW,285,2.0,5.0,48,0.00,,,0.00,weatherlink.com 1.10,2013-01-04 22:40:00,
2013-01-04 17:55:00,44.4,27.0,30.20,West,273,1.0,6.0,50,0.00,,,0.00,weatherlink.com 1.10,2013-01-04 22:55:00,
2013-01-04 18:10:00,44.1,27.0,30.22,WNW,300,1.0,6.0,51,0.00,,,0.00,weatherlink.com 1.10,2013-01-04 23:10:00,
2013-01-04 18:25:00,43.9,24.0,30.22,West,269,3.0,13.0,46,0.00,,,0.00,weatherlink.com 1.10,2013-01-04 23:25:00,
2013-01-04 18:40:00,43.9,26.0,30.22,WSW,257,2.0,8.0,49,0.00,,,0.00,weatherlink.com 1.10,2013-01-04 23:40:00,
2013-01-04 18:55:00,43.6,25.0,30.23,WNW,297,5.0,6.0,48,0.00,,,0.00,weatherlink.com 1.10,2013-01-04 23:55:00,
2013-01-04 19:25:00,42.3,24.0,30.25,WNW,296,3.0,8.0,49,0.00,,,0.00,weatherlink.com 1.10,2013-01-05 00:25:00,
2013-01-04 19:40:00,41.5,23.0,30.26,NW,306,2.0,11.0,48,0.00,,,0.00,weatherlink.com 1.10,2013-01-05 00:40:00,
2013-01-04 19:55:00,40.9,23.0,30.26,West,271,2.0,8.0,50,0.00,,,0.00,weatherlink.com 1.10,2013-01-05 00:55:00,
2013-01-04 20:25:00,39.3,23.0,30.28,WNW,303,5.0,13.0,52,0.00,,,0.00,weatherlink.com 1.10,2013-01-05 01:25:00,
2013-01-04 20:40:00,38.8,23.0,30.28,NNW,327,5.0,8.0,53,0.00,,,0.00,weatherlink.com 1.10,2013-01-05 01:40:00,
2013-01-04 20:55:00,38.1,22.0,30.28,NW,306,2.0,8.0,53,0.00,,,0.00,weatherlink.com 1.10,2013-01-05 01:55:00,
2013-01-04 21:10:00,37.5,23.0,30.28,NNW,344,5.0,8.0,56,0.00,,,0.00,weatherlink.com 1.10,2013-01-05 02:10:00,
2013-01-04 21:25:00,36.8,23.0,30.29,WNW,290,4.0,8.0,57,0.00,,,0.00,weatherlink.com 1.10,2013-01-05 02:25:00,
2013-01-04 21:40:00,36.3,23.0,30.29,WNW,298,1.0,6.0,59,0.00,,,0.00,weatherlink.com 1.10,2013-01-05 02:40:00,
2013-01-04 21:55:00,35.8,23.0,30.29,NNW,336,2.0,6.0,59,0.00,,,0.00,weatherlink.com 1.10,2013-01-05 02:55:00,
2013-01-04 22:10:00,35.2,23.0,30.29,NNW,327,1.0,3.0,61,0.00,,,0.00,weatherlink.com 1.10,2013-01-05 03:10:00,
2013-01-04 22:25:00,34.4,22.0,30.29,NNW,336,1.0,3.0,62,0.00,,,0.00,weatherlink.com 1.10,2013-01-05 03:25:00,
2013-01-04 22:40:00,33.7,23.0,30.28,West,281,3.0,3.0,64,0.00,,,0.00,weatherlink.com 1.10,2013-01-05 03:40:00,
2013-01-04 22:55:00,32.9,23.0,30.28,West,276,0.0,3.0,66,0.00,,,0.00,weatherlink.com 1.10,2013-01-05 03:55:00,
2013-01-04 23:10:00,32.0,22.0,30.28,West,273,3.0,5.0,68,0.00,,,0.00,weatherlink.com 1.10,2013-01-05 04:10:00,
2013-01-04 23:25:00,31.5,22.0,30.28,West,271,2.0,3.0,69,0.00,,,0.00,weatherlink.com 1.10,2013-01-05 04:25:00,
2013-01-04 23:40:00,31.0,23.0,30.27,West,271,1.0,3.0,71,0.00,,,0.00,weatherlink.com 1.10,2013-01-05 04:40:00,
2013-01-04 23:55:00,30.7,23.0,30.27,West,279,4.0,5.0,72,0.00,,,0.00,weatherlink.com 1.10,2013-01-05 04:55:00,